Location: Newark
(48.9320°N, 2.2664°E)
Time: 15:05:59
(UTC+00:00)

Vanguard 1 Rocket - Pass Details

Date: 27 February 2020
Orbit: 650 x 4227 km, 34.3° (Epoch: 30 March)

Event Time Altitude Azimuth Distance (km) Brightness Sun altitude
Rises 22:30:29 0° 205° (SSW) 7,166 11.7 -44.9°
Enters shadow 22:30:42 - 205° (SSW) 7,117 11.7 -44.9°
Reaches altitude 10° 22:38:29 10° 189° (S) 5,337 - -45.6°
Maximum altitude 22:45:45 16° 158° (SSE) 4,014 - -46.2°
Drops below altitude 10° 22:51:10 10° 126° (SE) 3,784 - -46.6°
Sets 22:55:11 0° 104° (ESE) 4,241 - -46.9°
